Location: ????????
(55.0559°N, 39.1270°E)
Time: 00:38:43
(UTC+00:00)

IRS-1D - Pass Details

Date: 15 November 2025
Orbit: 736 x 811 km, 98.8° (Epoch: 12 December)

Event Time Altitude Azimuth Distance (km) Brightness Sun altitude
Rises 03:48:24 0° 12° (NNE) 3,206 6.7 -9.5°
Reaches altitude 10° 03:50:54 10° 3° (N) 2,269 5.8 -9.2°
Maximum altitude 03:55:15 32° 301° (WNW) 1,259 4.1 -8.6°
Drops below altitude 10° 03:59:35 10° 240° (WSW) 2,243 5.6 -8.0°
Sets 04:02:02 0° 230° (SW) 3,162 6.4 -7.7°
